Location: Charbonni�res
(45.9952°N, 2.9982°E)
Time: 16:41:07
(UTC+00:00)

NOAA 16 DEB - Visible Passes

Search period start: 24 June 2021 00:00
Search period end: 04 July 2021 00:00
Orbit: 796 x 847 km, 98.8° (Epoch: 24 June)

Date Brightness Start Highest point End Pass type
(mag) Time Alt. Az. Time Alt. Az. Time Alt. Az.
24 Jun ? 00:11:01 19° WSW 00:12:33 22° W 00:16:33 10° NW visible
24 Jun ? 22:09:00 21° ESE 22:11:51 37° ENE 22:16:38 10° N visible
24 Jun ? 23:50:23 27° SW 23:51:59 32° W 23:56:40 10° NNW visible
25 Jun ? 21:48:22 14° ESE 21:51:39 26° ENE 21:55:54 10° N visible
25 Jun ? 23:29:45 35° SSW 23:31:29 48° W 23:36:33 10° NNW visible
26 Jun ? 21:28:02 10° E 21:31:31 18° ENE 21:34:59 10° NNE visible
26 Jun ? 23:09:07 40° S 23:11:02 73° WSW 23:16:18 10° NNW visible
27 Jun ? 21:09:12 10° E 21:11:25 13° NE 21:13:40 10° NNE visible
27 Jun ? 22:48:30 36° SSE 22:50:40 77° ENE 22:55:55 10° NNW visible
28 Jun ? 00:29:53 14° WSW 00:31:22 15° W 00:34:19 10° NW visible
28 Jun ? 22:27:52 28° SE 22:30:20 52° ENE 22:35:25 10° N visible
29 Jun ? 00:09:15 20° WSW 00:10:44 23° W 00:14:49 10° NW visible
29 Jun ? 22:07:14 21° ESE 22:10:04 35° ENE 22:14:48 10° N visible
29 Jun ? 23:48:37 28° SW 23:50:10 33° W 23:54:54 10° NNW visible
30 Jun ? 21:46:36 14° ESE 21:49:52 25° ENE 21:54:04 10° N visible
30 Jun ? 23:27:59 36° SSW 23:29:40 50° W 23:34:46 10° NNW visible
01 Jul ? 21:26:21 10° E 21:29:44 18° ENE 21:33:06 10° NNE visible
01 Jul ? 23:07:21 41° S 23:09:13 76° WSW 23:14:30 10° NNW visible
02 Jul ? 21:07:35 10° ENE 21:09:39 12° NE 21:11:42 10° NNE visible
02 Jul ? 22:46:44 37° SSE 22:48:50 74° ENE 22:54:05 10° N visible
03 Jul ? 00:28:07 14° WSW 00:29:31 16° W 00:32:37 10° NW visible
03 Jul ? 22:26:06 28° SE 22:28:31 50° ENE 22:33:34 10° N visible
